Regional Weather Roundup
Issued by NWS Upton, NY

Current Version | Previous Version | Text Only | Print | Product List | Glossary On
Versions: 1 2 3 4 5 6 7 8 9 10 11 12 13 14 15 16 17 18 19 20 21 22 23 24 25 26 27 28 29 30 31 32 33 34 35 36 37 38 39 40 41 42 43 44 45 46 47 48 49 50
000
ASUS41 KOKX 052205
RWROKX

REGIONAL WEATHER ROUNDUP
NATIONAL WEATHER SERVICE NEW YORK NY
500 PM EST THU MAR 05 2015

NOTE: "FAIR" INDICATES FEW OR NO CLOUDS BELOW 12,000 FEET WITH NO
SIGNIFICANT WEATHER AND/OR OBSTRUCTIONS TO VISIBILITY.

NYZ071-072-176-178-NJZ106-104-052300-
NEW YORK CITY METRO AREA


CITY           SKY/WX    TMP DP  RH WIND       PRES   REMARKS
CENTRAL PARK   SNOW      20  16  84 NW9       30.22R VSB 1/2 WCI   9
LAGUARDIA APRT SNOW      22  18  85 NW14      30.20R VSB 1/2 WCI   9
KENNEDY INTL   SNOW      24  18  77 NW8       30.20R VSB 1/2 WCI  15
NEWARK/LIBERTY SNOW      21  18  88 NW12      30.22R VSB 1/2 WCI   9
BRNX BOT. GARD   N/A    N/A N/A N/A NW13      30.21F
TETERBORO      LGT SNOW  19  16  86 NW7       30.21R FOG     WCI  10
$$

NYZ177-179-078>081-052300-
LONG ISLAND NEW YORK

CITY           SKY/WX    TMP DP  RH WIND       PRES   REMARKS
FARMINGDALE    SNOW      23  19  85 N14       30.18R VSB 1/2 WCI  11
ISLIP          SNOW      21  15  78 N16       30.15S VSB 1/2 WCI   7
SHIRLEY        LGT SNOW  21  15  78 NW12      30.18S WCI   9
WESTHAMPTON    LGT SNOW  21  16  81 NW12      30.18R VSB 3/4 WCI   9
MONTAUK POINT    N/A     24  20  84 NW9       30.15F WCI  14
$$

NYZ052-065-067-052300-
HUDSON VALLEY

CITY           SKY/WX    TMP DP  RH WIND       PRES   REMARKS
WHITE PLAINS   CLOUDY    20  13  74 NW5       30.16R WCI  13
NEWBURGH       CLOUDY    21   5  49 NE5       30.18R WCI  15
MONTGOMERY     CLOUDY    22   3  44 NW6       30.18R WCI  14
POUGHKEEPSIE   CLOUDY    23   4  44 N7        30.20R WCI  15
ALBANY         CLOUDY    19   3  49 W13       30.19R WCI   6
$$

NJZ001-105-106-008-010-013-015-019>022-104-052300-
NEW JERSEY

CITY           SKY/WX    TMP DP  RH WIND       PRES   REMARKS
NEWARK/LIBERTY SNOW      21  18  88 NW12      30.22R VSB 1/2 WCI   9
TETERBORO      LGT SNOW  19  16  86 NW7       30.21R FOG     WCI  10
CALDWELL       CLOUDY    20  14  77 W3        30.22R HAZE
MORRISTOWN     FLURRIES  19  16  86 CALM      30.22R
SOMERVILLE     LGT SNOW  20  14  77 NW5       30.21S WCI  13
SUSSEX         CLOUDY    22   1  40 N7        30.19R WCI  13
ANDOVER          N/A     19  11  70 VRB3      30.19R
TRENTON        LGT SNOW  20  16  84 N7        30.21R VSB 3/4 WCI  11
MILLVILLE      SNOW      23  32 100 N14G24    30.22R VSB 1/2 WCI  11
ATLANTIC CITY  SNOW      21  19  93 N14       30.19R VSB 1/2 WCI   8
WRIGHTSTOWN    LGT SNOW  19  18  93 N13       30.18S FOG     WCI   7
TOMS RIVER     CLOUDY    21  18  86 N14       30.21R VSB 1   WCI   8
BELMAR         CLOUDY    21  12  68 NW10      30.20R WCI  10
$$

PAZ047>061-062-071-052300-
EASTERN PENNSYLVANIA

CITY           SKY/WX    TMP DP  RH WIND       PRES   REMARKS
PHILADELPHIA   SNOW      20  16  84 N13       30.25R VSB 1/2 WCI   7
ALLENTOWN      CLOUDY    20  11  68 W6        30.23R WCI  12
SCRANTON       CLOUDY    17   2  51 N13       30.19R WCI   4
$$

CTZ002-004>006-009-010-012-RIZ004-006-007-MAZ004-011-015-052300-
SOUTHERN NEW ENGLAND
 IN CT

CITY           SKY/WX    TMP DP  RH WIND       PRES   REMARKS
BRADLEY INTL   CLOUDY    26   6  42 NW9       30.15R WCI  17
HARTFORD       CLOUDY    25   5  42 NW7       30.16R WCI  17
DANBURY        CLOUDY    21   2  43 NW5       30.16R WCI  15
WTRBRY/OXFORD  CLOUDY    19   3  49 CALM      30.14R
BRIDGEPORT     LGT SNOW  20  17  88 NW8       30.19R VSB 1   WCI  10
MERIDEN        CLOUDY    21  14  74 S3        30.17R
NEW HAVEN      SNOW      21  16  81 NW5       30.19R VSB 1/2 WCI  15
CHESTER        LGT SNOW  23  19  86 NW3       30.14S
GROTON         LGT SNOW  22  18  85 NW9       30.15R VSB 1   WCI  12
WILLIMANTIC    CLOUDY    24  15  68 CALM      30.13S

 IN RI

CITY           SKY/WX    TMP DP  RH WIND       PRES   REMARKS
PROVIDENCE     LGT SNOW  24  20  84 CALM      30.14R VSB 3/4
BLOCK ISLAND   CLOUDY    25  19  80 N9        30.11S WCI  15
WESTERLY       LGT SNOW  24  20  84 CALM      30.15R FOG

 IN MA

CITY           SKY/WX    TMP DP  RH WIND       PRES   REMARKS
BOSTON         CLOUDY    24   4  42 NW12G18   30.14R WCI  13
WORCESTER      CLOUDY    21   2  43 N8        30.06R WCI  11
WESTFIELD      CLOUDY    23   2  40 NW14      30.14R WCI  11
PROVINCETOWN   CLOUDY    25  16  68 NW7       30.13R WCI  17
NANTUCKET      LGT SNOW  25  21  85 N17       30.09F VSB 3/4 WCI  12
$$

ANZ330-335-338-340-345-350-353-355-052300-
COASTAL MARINE OBSERVATIONS


STATION/POSITION TIME  SKY/WX   TEMP    WIND        PRES    VSBY  WAVE
                                AIR SEA DIR/SP/G                  HT/PER
                 (UTC)          (F)     (DEG/KT/KT) (MB)    (MI)  (FT/S)
NY HARB ENTRANCE 2200            24 38  340/ 16/ 19 1021.7          3/ 4
4S FIRE IS       2200               32                N/A           2/ 8
20S FIRE ISLAND  2100               36              1021.5          4/ 5
23SW MTP         2200                                 N/A           4/ 9
HUDSON CANYON    NOT AVBL
EXECUTION ROCKS  NOT AVBL
WESTERN LI SOUND NOT AVBL
CENTRAL LI SOUND NOT AVBL
EASTERN LI SOUND NOT AVBL
ROBBINS REEF     2200            20     320/ 12/ 16 1021.7
$$


>>>>>>>>>>>>>>>>>>>>>>>>>>>> KEY <<<<<<<<<<<<<<<<<<<<<<<<<<<
>                                                          <
>     SKY/WX - SKY CONDITION/PRESENT WEATHER               <
>     TMP    - TEMPERATURE IN FAHRENHEIT                   <
>     DP     - DEWPOINT IN FAHRENHEIT                      <
>     RH     - RELATIVE HUMIDITY IN PERCENT                <
>     WIND   - DIRECTION AND SPEED IN MPH                  <
>     PRES   - MEAN SEA LEVEL PRESSURE IN INCHES OF HG     <
>     WCI    - WIND CHILL INDEX                            <
>     VSB    - VISIBILITY IN MILES                         <
>     HX     - HEAT INDEX                                  <
>     TC     - TEMPERATURE IN CELSIUS                      <
>     VRB    - VARIABLE WIND DIRECTION                     <
>                                                          <
>>>>>>>>>>>>>>>>>>>>>>>>>>>> KEY <<<<<<<<<<<<<<<<<<<<<<<<<<<




USA.gov is the U.S. government's official web portal to all federal, state and local government web resources and services.